Regional Weather Roundup
Issued by NWS

Home | Current Version | Previous Version | Text Only | Print | Product List | Glossary On
Versions: 1 2 3 4 5 6 7 8 9 10 11 12 13 14 15 16 17 18 19 20 21 22 23 24 25 26 27 28 29 30 31 32 33 34 35 36 37 38 39 40 41 42 43 44 45 46 47 48 49 50
000
ASCA44 KEWX 010120
RWRMX

LATIN AMERICA AND CARIBBEAN REGIONAL WEATHER ROUNDUP
NATIONAL WEATHER SERVICE AUSTIN/SAN ANTONIO TX
800 PM CDT TUE JUN 30 2015

NOTE: "FAIR" INDICATED FEW OR NO CLOUDS BELOW 12,000 FEET WITH NO
SIGNIFICANT WEATHER AND/OR OBSTRUCTIONS TO VISIBILITY.

BAJA CALIFORNIA

CITY           SKY/WX    TMP DP  RH WIND       PRES   REMARKS
LORETO         MOSUNNY   95  68  41 SE6       29.74F HX  99
LA PAZ         MOSUNNY   91  57  31 NW7       29.79  HX  90
MEXICALI       MOSUNNY  102  50  17 SE3       29.71  HX  99
S.J. DEL CABO  MOSUNNY   86  64  48 SE9       29.80S
TIJUANA        PTSUNNY   91  59  33 N9        29.84F HX  90

NORTHWESTERN MEXICO

CITY           SKY/WX    TMP DP  RH WIND       PRES   REMARKS
CULIACAN       CLOUDY    86  77  74 S7        29.82  HX  97
DURANGO        CLOUDY    63  59  88 W5        30.19
GUAYMAS          N/A    N/A N/A N/A MISG        N/A
HERMOSILLO     CLOUDY    93  63  36 N25G44    29.88  HX  94
CD. JUAREZ     PTSUNNY   86  63  45 SW17      29.96
LOS MOCHIS     PTSUNNY   86  70  58 SW10      29.79F HX  90
OBREGON        MOSUNNY   91  72  52 SW9       29.76  HX  98

NORTHEASTERN MEXICO

CITY           SKY/WX    TMP DP  RH WIND       PRES   REMARKS
CHIHUAHUA      PTSUNNY   79  48  34 NW12      30.07
MATAMOROS      MOCLDY    82  73  74 SE9       29.98
MONCLOVA         N/A    N/A N/A N/A MISG        N/A
MONTERREY      PTCLDY    82  59  44 SE17      29.95R
NUEVO LAREDO   MOCLDY    88  70  55 S12       29.90  HX  92
PIEDRAS NEGRAS   N/A    N/A N/A N/A MISG        N/A
REYNOSA        PTCLDY    81  64  57 SE9       29.95
SALTILLO       MOCLDY    70  61  73 N12       30.11R
TORREON        MOCLDY    86  63  45 SE13      29.97R
CD. VICTORIA   DRIZZLE   73  72  94 S8        29.99

WESTERN MEXICO

CITY           SKY/WX    TMP DP  RH WIND       PRES   REMARKS
AGUASCALIENTES PTCLDY    70  52  52 W3        30.17
COLIMA         PTCLDY    77  70  78 N7        29.94S
DEL BAJIO      MOCLDY    72  61  68 NE6       30.21R
GUADALAJARA    PTCLDY    81  48  32 W6        30.07
MANZANILLO     PTCLDY    86  77  74 W12       29.75S HX  97
MAZATLAN       PTSUNNY   84  70  61 SW10      29.80R
P. VALLARTA    CLEAR     84  77  79 SW10      29.81R HX  94
URUAPAN          N/A    N/A N/A N/A MISG        N/A
ZACATECAS      MOCLDY    63  54  72 CALM      30.22S

CENTRAL MEXICO

CITY           SKY/WX    TMP DP  RH WIND       PRES   REMARKS
CUERNAVACA       N/A    N/A N/A N/A MISG        N/A
MEXICO CITY    LGT RAIN  59  54  82 S6        30.31R
MORELIA        MOCLDY    68  57  68 SW9       30.17
POZA RICA      MOCLDY    82  75  78 E7        29.93R
PUEBLA         MOCLDY    66  50  55 S7        30.28R
QUERETARO      CLOUDY    66  57  72 S7        30.24R
S. LUIS POTOSI CLOUDY    63  61  94 E5        30.19R
TAMPICO        CLOUDY    77  73  88 NW7       29.93R
TOLUCA         MOCLDY    54  52  94 SE8       30.35R THUNDER

SOUTHERN MEXICO

CITY           SKY/WX    TMP DP  RH WIND       PRES   REMARKS
ACAPULCO       MOCLDY    88  79  74 W3        29.81R HX 102
B. DE HUATULCO CLOUDY    82  77  83 CALM      29.89R HX  91
OAXACA         RAIN      64  59  82 NE6       30.22R
P. ESCONDIDO     N/A    N/A N/A N/A MISG        N/A
VERACRUZ       CLOUDY    82  75  78 NE6       29.88R
ZIHUATANEJO    PTCLDY    91  75  59 SW12      29.79R HX 102

YUCATAN PENINSULA

CITY           SKY/WX    TMP DP  RH WIND       PRES   REMARKS
CAMPECHE       PTCLDY    91  66  43 E12G23    29.89R HX  94
CANCUN         PTCLDY    82  79  89 E7        30.04R HX  93
CHETUMAL       MOCLDY    84  73  70 NE12      29.99  HX  91
CD. DEL CARMEN MOCLDY    93  68  43 E16       29.88  HX  97
COZUMEL        PTCLDY    79  77  94 CALM      30.03S
MERIDA         CLOUDY    90  68  48 SE14      29.95R HX  93
MINATITLAN     CLOUDY    82  68  61 N12       29.83
TAPACHULA      MOCLDY    77  73  88 NE12      29.84F
TUX. GUTIERREZ CLOUDY    81  64  57 NW5       29.91R
VILLAHERMOSA   PTCLDY    84  70  61 NE5       29.88R

CENTRAL AMERICA

CITY           SKY/WX    TMP DP  RH WIND       PRES   REMARKS
MANAGUA          N/A     86  66  51 E18       29.83R

CARIBBEAN

CITY           SKY/WX    TMP DP  RH WIND       PRES   REMARKS
ARUBA          PTCLDY    81  77  89 E18       29.97R
CURACAO        PTCLDY    81  75  83 E10       30.00R
KINGSTON       PTCLDY    86  70  58 SE18      29.97S HX  90
NASSAU         MOCLDY    84  73  70 SE9       30.14S HX  91
SAN JUAN       PTCLDY    81  75  83 E9        30.14R
SANTO DOMINGO  MOCLDY    75  73  94 NE5       30.06S
ST. CROIX      MOCLDY    81  73  78 E13       30.13R
ST. THOMAS     LGT RAIN  79  75  89 E12       30.12R

$$




USA.gov is the U.S. government's official web portal to all federal, state and local government web resources and services.